TimeGMT,TemperatureF,Dew PointF,Humidity,Sea Level PressureIn,VisibilityMPH,Wind Direction,Wind SpeedMPH,Gust SpeedMPH,PrecipitationIn,Events,Conditions,WindDirDegrees,DateUTC
12:20 AM,37.4,35.6,93,29.47,-9999.0,West,6.9,-,N/A,,Clear,260,2012-11-11 00:20:00
12:50 AM,39.2,37.4,93,29.47,-9999.0,West,8.1,-,N/A,,Clear,260,2012-11-11 00:50:00
1:20 AM,39.2,37.4,93,29.50,-9999.0,WSW,8.1,-,N/A,,Clear,250,2012-11-11 01:20:00
1:50 AM,39.2,37.4,93,29.50,-9999.0,WSW,6.9,-,N/A,,Clear,250,2012-11-11 01:50:00
2:20 AM,39.2,37.4,93,29.50,-9999.0,WSW,6.9,-,N/A,,Clear,240,2012-11-11 02:20:00
2:50 AM,37.4,35.6,93,29.53,6.2,WSW,4.6,-,N/A,,Unknown,250,2012-11-11 02:50:00
3:20 AM,37.4,35.6,93,29.56,6.2,WSW,8.1,-,N/A,,Unknown,250,2012-11-11 03:20:00
3:50 AM,37.4,35.6,93,29.59,6.2,WSW,8.1,-,N/A,,Unknown,250,2012-11-11 03:50:00
4:20 AM,35.6,33.8,93,29.59,-9999.0,WSW,8.1,-,N/A,,Clear,240,2012-11-11 04:20:00
4:50 AM,33.8,33.8,100,29.62,-9999.0,SW,8.1,-,N/A,,Clear,230,2012-11-11 04:50:00
5:20 AM,35.6,35.6,100,29.62,-9999.0,WSW,6.9,-,N/A,,Clear,250,2012-11-11 05:20:00
5:50 AM,35.6,33.8,93,29.62,-9999.0,WSW,6.9,-,N/A,,Clear,250,2012-11-11 05:50:00
6:20 AM,35.6,35.6,100,29.65,-9999.0,West,3.5,-,N/A,,Clear,260,2012-11-11 06:20:00
6:50 AM,35.6,33.8,93,29.65,-9999.0,West,3.5,-,N/A,,Clear,260,2012-11-11 06:50:00
7:20 AM,35.6,33.8,93,29.68,6.2,West,4.6,-,N/A,,Partly Cloudy,270,2012-11-11 07:20:00
7:50 AM,35.6,33.8,93,29.71,6.2,West,4.6,-,N/A,,Partly Cloudy,260,2012-11-11 07:50:00
8:20 AM,35.6,33.8,93,29.71,6.2,West,6.9,-,N/A,,Partly Cloudy,260,2012-11-11 08:20:00
8:50 AM,37.4,35.6,93,29.74,6.2,West,6.9,-,N/A,,Partly Cloudy,260,2012-11-11 08:50:00
9:20 AM,39.2,37.4,93,29.74,6.2,West,5.8,-,N/A,,Partly Cloudy,270,2012-11-11 09:20:00
9:50 AM,41.0,37.4,87,29.77,6.2,West,4.6,-,N/A,,Partly Cloudy,280,2012-11-11 09:50:00
10:20 AM,42.8,39.2,87,29.77,-9999.0,Variable,3.5,-,N/A,,Clear,0,2012-11-11 10:20:00
10:50 AM,44.6,41.0,87,29.77,-9999.0,SW,5.8,-,N/A,,Clear,230,2012-11-11 10:50:00
11:20 AM,44.6,39.2,81,29.80,6.2,West,4.6,-,N/A,,Partly Cloudy,270,2012-11-11 11:20:00
11:50 AM,46.4,39.2,76,29.80,6.2,WSW,6.9,-,N/A,,Partly Cloudy,250,2012-11-11 11:50:00
12:20 PM,46.4,39.2,76,29.80,6.2,WSW,6.9,-,N/A,,Partly Cloudy,240,2012-11-11 12:20:00
12:50 PM,46.4,39.2,76,29.83,6.2,WSW,9.2,-,N/A,,Partly Cloudy,250,2012-11-11 12:50:00
1:20 PM,46.4,39.2,76,29.83,6.2,WSW,8.1,-,N/A,,Partly Cloudy,250,2012-11-11 13:20:00
1:50 PM,46.4,39.2,76,29.86,6.2,WSW,9.2,-,N/A,,Partly Cloudy,250,2012-11-11 13:50:00
2:20 PM,44.6,39.2,81,29.83,-9999.0,WSW,9.2,-,N/A,,Clear,250,2012-11-11 14:20:00
2:50 PM,44.6,37.4,76,29.86,-9999.0,WSW,4.6,-,N/A,,Clear,250,2012-11-11 14:50:00
3:20 PM,44.6,37.4,76,29.86,-9999.0,West,5.8,-,N/A,,Clear,260,2012-11-11 15:20:00
3:50 PM,42.8,37.4,81,29.86,-9999.0,WSW,6.9,-,N/A,,Clear,250,2012-11-11 15:50:00
4:20 PM,42.8,35.6,76,29.86,-9999.0,WSW,5.8,-,N/A,,Clear,250,2012-11-11 16:20:00
4:50 PM,41.0,37.4,87,29.89,-9999.0,West,5.8,-,N/A,,Clear,270,2012-11-11 16:50:00
5:20 PM,41.0,35.6,81,29.89,-9999.0,South,4.6,-,N/A,,Clear,170,2012-11-11 17:20:00
5:50 PM,41.0,35.6,81,29.89,-9999.0,Variable,3.5,-,N/A,,Clear,0,2012-11-11 17:50:00
6:20 PM,39.2,35.6,87,29.92,-9999.0,Variable,2.3,-,N/A,,Clear,0,2012-11-11 18:20:00
6:50 PM,41.0,35.6,81,29.92,-9999.0,WSW,6.9,-,N/A,,Clear,250,2012-11-11 18:50:00
7:20 PM,41.0,35.6,81,29.92,-9999.0,WSW,8.1,-,N/A,,Clear,250,2012-11-11 19:20:00
7:50 PM,39.2,35.6,87,29.95,-9999.0,WSW,4.6,-,N/A,,Clear,250,2012-11-11 19:50:00
8:20 PM,39.2,35.6,87,29.95,-9999.0,West,2.3,-,N/A,,Clear,260,2012-11-11 20:20:00
9:20 PM,35.6,33.8,93,29.95,-9999.0,Calm,Calm,-,N/A,,Clear,0,2012-11-11 21:20:00
9:50 PM,33.8,32.0,93,29.95,-9999.0,WNW,2.3,-,N/A,,Clear,290,2012-11-11 21:50:00
10:20 PM,35.6,33.8,93,29.95,-9999.0,Variable,2.3,-,N/A,,Clear,0,2012-11-11 22:20:00
10:50 PM,33.8,32.0,93,29.98,-9999.0,WSW,2.3,-,N/A,,Clear,240,2012-11-11 22:50:00
11:20 PM,32.0,32.0,100,29.98,-9999.0,Calm,Calm,-,N/A,,Clear,0,2012-11-11 23:20:00
11:50 PM,32.0,30.2,93,29.98,-9999.0,WSW,2.3,-,N/A,,Clear,250,2012-11-11 23:50:00